Flag for Germany Weather past 2 weeks in Unna, North Rhine-Westphalia, Germany

Now
36 °F

Passing clouds.


Feels Like: 29 °F
Forecast: 35 / 39 °F
Wind: 8 mph from West

Location: Paderborn / Lippstadt

Current Time: Dec 26, 2014 at 12:29:20 AM

Latest Report: Dec 25, 2014 at 11:20 PM


Visibility: N/A

Pressure: 30.30 "Hg

Humidity: 87%

Dew point: 32 °F

Location of UnnaLocation

Historic Weather in Unna — Graph

°F

Unna temperature yesterday

Maximum temperature yesterday: 39 °F (at 6:20 AM)
Minimum temperature yesterday: 36 °F (at 8:20 PM)
Average temperature yesterday: 38 °F

Past Weeks' High & Low Weather Summary

 TemperatureHumidityPressure
High54 °F (Dec 18, 5:50 PM)100% (Dec 11, 2:20 PM)30.33 "Hg (Dec 11, 2:20 PM)
Low27 °F (Dec 15, 12:50 AM)56% (Dec 15, 3:50 AM)29.39 "Hg (Dec 12, 2:50 PM)
Average42 °F87%29.91 "Hg
* Reported Dec 10 11:20 PM — Dec 25 11:20 PM, Unna, Weather by CustomWeather, © 2014

Note: Actual official high and low records may vary slightly from our data, if they occured in-between our weather recording intervals... More about our weather records

Advertising

Unna weather history for previous 24 hours

 ConditionsComfort  
Time TempWeatherWind HumidityBarometerVisibility
11:20 PM
Dec 25
36 °FPassing clouds.8 mph87%30.30 "HgN/A
10:50 PM36 °FPassing clouds.8 mph87%30.27 "HgN/A
10:20 PM36 °FPassing clouds.9 mph93%30.27 "HgN/A
9:50 PM36 °FPassing clouds.9 mph93%30.27 "HgN/A
9:20 PM36 °FPassing clouds.8 mph93%30.27 "HgN/A
8:50 PM36 °FPassing clouds.10 mph93%30.27 "HgN/A
8:20 PM36 °FPassing clouds.10 mph93%30.24 "HgN/A
7:50 PM37 °FPassing clouds.13 mph81%30.24 "HgN/A
7:20 PM37 °FPassing clouds.12 mph81%30.21 "HgN/A
6:50 PM37 °FPassing clouds.12 mph81%30.21 "HgN/A
6:20 PM37 °FPassing clouds.9 mph81%30.21 "HgN/A
5:50 PM37 °FScattered showers. Passing clouds.13 mph87%30.18 "HgN/A
5:20 PM37 °FScattered showers. Passing clouds.12 mph87%30.18 "HgN/A
4:50 PM37 °FScattered showers. Passing clouds.12 mph87%30.15 "HgN/A
4:20 PM37 °FPassing clouds.10 mph93%30.15 "HgN/A
3:50 PM37 °FSprinkles. Scattered clouds.12 mph93%30.15 "HgN/A
3:20 PM39 °FSprinkles. Scattered clouds.12 mph93%30.15 "HgN/A
2:50 PM39 °FSprinkles. Partly sunny.12 mph87%30.15 "HgN/A
2:20 PM39 °FBroken clouds.14 mph87%30.15 "HgN/A
1:50 PM39 °FBroken clouds.12 mph87%30.15 "HgN/A
1:20 PM39 °FSprinkles. Partly sunny.12 mph87%30.12 "HgN/A
12:50 PM39 °FSprinkles. Partly sunny.14 mph93%30.12 "HgN/A
12:20 PM39 °FSprinkles. Partly sunny.14 mph93%30.12 "Hg4 mi
11:50 AM39 °FSprinkles. Partly sunny.14 mph87%30.12 "HgN/A
11:20 AM39 °FSprinkles. Partly sunny.16 mph87%30.12 "HgN/A
10:50 AM39 °FSprinkles. Broken clouds.16 mph87%30.12 "HgN/A
10:20 AM39 °FScattered clouds.16 mph81%30.12 "HgN/A
9:50 AM39 °FScattered clouds.15 mph81%30.09 "HgN/A
9:20 AM39 °FBroken clouds.17 mph81%30.09 "HgN/A
8:50 AM39 °FBroken clouds.15 mph81%30.09 "HgN/A
8:20 AM39 °FPartly cloudy.17 mph81%30.09 "HgN/A
7:50 AM39 °FPassing clouds.16 mph75%30.09 "HgN/A
7:20 AM39 °FPassing clouds.16 mph75%30.09 "HgN/A
6:50 AM39 °FPassing clouds.17 mph75%30.07 "HgN/A
6:20 AM39 °FPassing clouds.14 mph75%30.09 "HgN/A
5:50 AM37 °FPassing clouds.15 mph81%30.07 "HgN/A
5:20 AM37 °FPassing clouds.16 mph81%30.07 "HgN/A
Weather by CustomWeather, © 2014

See weather overviewHow to use our weather pages